sat.trackr.live / text

‹ back to catalog

STARLINK-34555

NORAD 64665 · 2025-139B

PAYLOAD ACTIVE UNKNOWN

§ Identity

Operator
Country
US
Launch date
2025-06-28
Launch site
AFETR
Launch vehicle
Mass (kg)
RCS (m²)

Purposes: comms

External: N2YO · Heavens-Above · Gunter

§ Orbital elements

Epoch: 2026-09-20T06:11:10.837248Z

Period
93.85 min
Inclination
53.1582°
Eccentricity
0.0001380
Mean motion
15.34381888 rev/d
Perigee alt
461.8 km
Apogee alt
463.7 km
Semi-major
6,840.9 km
B*
3.7330e-4
RAAN
299.0179°
Arg perigee
97.9336°
Mean anomaly
262.1823°
Rev number
7,003

§ Raw data

STARLINK-345551 64665U 25139B   26263.25776432  .00012250  00000+0  37330-3 0  99902 64665  53.1582 299.0179 0001380  97.9336 262.1823 15.34381888 70032

JSON: /api/v1/satellites/64665 · /tle

For live sub-satellite position, see the globe view (requires WebGL).

§ Visibility from observer

Set your observer location to see the next 7 days of passes ≥ 10°. The values pass through the URL so the page stays shareable.

No JS? Fill the form by hand. The geolocation button needs JavaScript.